User: anonymous   Login
Location: Cahas Mountain Overlook
(37.0833°N, 80.1000°W)
Time: 15:55:03
(UTC-05:00)
Language:

Courier 1B Rocket - Orbit

View from above orbital plane
View from above orbital plane
View from above satellite
View from above satellite

Ground track
Ground track

The orbit data is extracted from the following two-line orbital elements,

1 00059U 60013B   22024.60639248  .00000089  00000-0 -11991-5 0  9996
2 00059  28.2491  87.2355 0189103 165.9270 194.6636 13.52991620 25688
Epoch (UTC): 24 January 2022 14:33:12
Eccentricity: 0.0189103
inclination: 28.2491°
perigee height: 920 km
apogee height: 1202 km
right ascension of ascending node: 87.2355°
argument of perigee: 165.9270°
revolutions per day: 13.52991620
mean anomaly at epoch: 194.6636°
orbit number at epoch: 2568

The dashed part of the orbit path shows where the satellite is in the earth's shadow,  

DLR